Weather History for Jordan, MT

Change the Weather History Date:

Wednesday, February 13, 2013

  Actual Average Record
Temperature  
Mean Temperature 39 °F 22 °F  
Max Temperature 47 °F 34 °F 64 °F (1934)
Min Temperature 30 °F 10 °F -30 °F (1949)
Degree Days  
Heating Degree Days 26 43  
Month to date heating degree days 425 579  
Since 1 July heating degree days 4916 5509  
Cooling Degree Days 0 0  
Month to date cooling degree days 0 0  
Year to date cooling degree days 0 0  
Moisture  
Dew Point 24 °F    
Average Humidity 58    
Maximum Humidity 72    
Minimum Humidity 44    
Precipitation  
Precipitation 0.00 in 0.00 in 0.60 in (1965)
Month to date precipitation 0.02 0.09  
Year to date precipitation 0.35 0.32  
Snow  
Snow 0.00 in - - ()
Month to date snowfall 0.0  
Since 1 July snowfall 0.0  
Snow Depth 0.00 in    
Sea Level Pressure  
Sea Level Pressure 29.88 in    
Wind  
Wind Speed 21 mph (WNW)    
Max Wind Speed 39 mph    
Max Gust Speed 45 mph    
T = Trace of Precipitation, MM = Missing Value Source: NWS Daily Summary

Daily Weather History Graph

Daily Weather History Graph

Search for Another Location

Airport:

Trip Planner

Search our weather history database for the weather conditions in past years. The results will help you decide how hot, cold, wet, or windy it might be!

Date:

Astronomy

Feb. 13, 2013 Rise Set
Actual Time 7:15 AM MST 5:29 PM MST
Civil Twilight 6:43 AM MST 6:00 PM MST
Nautical Twilight 6:08 AM MST 6:36 PM MST
Astronomical Twilight 5:32 AM MST 7:12 PM MST
Moon 8:27 AM MST (2/13) 9:56 PM MST (2/13)
Length of Visible Light 11h 16m
Length of Day
10h 13m
Waxing Crescent, 14% of the Moon is Illuminated
Feb 13
Waxing Crescent
Feb 17
First Quarter
Feb 25
Full
Mar 4
Last Quarter
Mar 11
New

Hourly Weather History & Observations

Time (MST) Temp. Windchill Dew Point Humidity Pressure Visibility Wind Dir Wind Speed Gust Speed Precip Events Conditions
12:48 AM 32.0 °F 24.8 °F 25.0 °F 75% 29.80 in - WNW 8.1 mph - N/A   Unknown
1:48 AM 35.1 °F 27.4 °F 26.1 °F 70% 29.76 in - West 10.4 mph - N/A   Unknown
2:48 AM 37.9 °F 29.6 °F 26.1 °F 62% 29.74 in - WSW 13.8 mph 23.0 mph N/A   Unknown
3:48 AM 37.9 °F 32.1 °F 26.1 °F 62% 29.74 in - West 8.1 mph - N/A   Unknown
4:48 AM 41.0 °F 31.4 °F 27.0 °F 57% 29.74 in - WNW 21.9 mph 31.1 mph N/A   Unknown
5:48 AM 41.0 °F 32.2 °F 27.0 °F 57% 29.75 in - WNW 18.4 mph 25.3 mph N/A   Unknown
6:48 AM 42.1 °F 32.6 °F 26.1 °F 53% 29.77 in - NW 23.0 mph 29.9 mph N/A   Unknown
7:48 AM 41.0 °F 32.5 °F 26.1 °F 55% 29.79 in - WNW 17.3 mph 27.6 mph N/A   Unknown
8:48 AM 39.9 °F 29.7 °F 28.9 °F 65% 29.81 in - WNW 23.0 mph 28.8 mph N/A   Unknown
9:48 AM 44.1 °F 35.2 °F 28.0 °F 53% 29.81 in - WNW 23.0 mph 32.2 mph N/A   Unknown
10:48 AM 42.1 °F 32.8 °F 28.0 °F 58% 29.83 in - WNW 21.9 mph 34.5 mph N/A   Unknown
11:48 AM 44.1 °F 34.4 °F 27.0 °F 51% 29.85 in - NW 27.6 mph 36.8 mph N/A   Unknown
12:48 PM 45.0 °F 35.6 °F 26.1 °F 48% 29.85 in - WNW 27.6 mph 36.8 mph N/A   Unknown
1:48 PM 44.1 °F 34.4 °F 25.0 °F 47% 29.86 in - NW 27.6 mph 42.6 mph N/A   Unknown
2:48 PM 41.0 °F 30.9 °F 24.1 °F 51% 29.89 in - NW 24.2 mph 36.8 mph N/A   Unknown
3:48 PM 39.9 °F 30.5 °F 25.0 °F 55% 29.93 in - NW 19.6 mph 29.9 mph N/A   Unknown
4:48 PM 37.9 °F 27.6 °F 21.0 °F 51% 29.95 in - NNW 20.7 mph 27.6 mph N/A   Unknown
5:48 PM 36.0 °F 25.6 °F 23.0 °F 59% 29.98 in - NNW 18.4 mph 26.5 mph N/A   Unknown
6:48 PM 35.1 °F 23.5 °F 16.0 °F 46% 30.02 in - NW 21.9 mph 34.5 mph N/A   Unknown
7:48 PM 34.0 °F 22.4 °F 16.0 °F 48% 30.03 in - WNW 20.7 mph 29.9 mph N/A   Unknown
8:48 PM 33.1 °F 22.2 °F 18.0 °F 54% 30.04 in - WNW 17.3 mph 24.2 mph N/A   Unknown
9:48 PM 33.1 °F 19.6 °F 17.1 °F 52% 30.02 in - NW 27.6 mph 34.5 mph N/A   Unknown
10:48 PM 30.9 °F 17.2 °F 17.1 °F 57% 30.07 in - NW 25.3 mph 31.1 mph N/A   Unknown
11:48 PM 30.0 °F 16.0 °F 19.0 °F 64% 30.09 in - WNW 25.3 mph 32.2 mph N/A   Unknown